< < Back
Terminal Aerodrome Forecast


Current Version              Previous Versions:   1  2  3  4  5  6  7  8  9  

Terminal Aerodrome Forecast

278
FTUS42 KFFC 232300
TAFFTY
TAF
KFTY 232335Z 2400/2424 32007KT P6SM SKC
     FM240200 00000KT P6SM SKC
     FM241400 10006KT P6SM SKC
     FM241800 16008KT P6SM FEW040
     FM242100 16007KT P6SM SCT060=

Latest METAR

657
SAUS70 KWBC 240300 RRD
MTRFTY
METAR KFTY 240253Z 00000KT 10SM CLR 12/05 A2995 RMK AO2 SLP139 T01220050
51012 $


USA.gov is the U.S. government's official web portal to all federal, state and local government web resources and services.